Location: Blairvadach
(56.2780°N, 6.9720°W)
Time: 13:57:33
(UTC+00:00)

Envisat - Pass Details

Date: 15 November 2019
Orbit: 764 x 766 km, 98.1° (Epoch: 07 December)

Event Time Altitude Azimuth Distance (km) Brightness Sun altitude
Rises 19:47:32 0° 212° (SSW) 3,226 6.5 -28.5°
Reaches altitude 10° 19:50:34 10° 231° (SW) 2,305 5.9 -28.9°
Maximum altitude 19:54:00 18° 274° (W) 1,817 5.7 -29.4°
Drops below altitude 10° 19:57:27 10° 317° (NW) 2,316 6.1 -29.8°
Sets 20:00:31 0° 336° (NNW) 3,248 6.7 -30.2°
